[[{"header":{"parameterUnit":"m.s-1","parameterCategory":1,"la1":30.2991,"la2":30.254,"lo1":-89.0895,"lo2":-89.0444,"dy":0.0017,"dx":0.0017,"nx":28,"ny":28,"refTime":"2025-11-16T03:00:00:Z","depth":0,"parameterNumber":2,"parameterNumberName":"U-component_of_WINDS"},"data":[0,0,0,0,0,0,0,0,0,0,0,0,0,0,0,0,0,0,0,0,0,0,0,0,0,0,0,0,0,0,0,0,0,0,0,0,0,0,0,0,0,0,0,0,0,0,0,0,0,0,0,0,0,0,0,0,0,0,2.7378,2.7379,0,2.7473,2.7474,2.7475,2.7454,2.7452,2.745,2.7449,2.7549,2.7553,2.7557,0,0,0,0,0,0,0,0,0,0,0,0,0,2.7183,2.7187,2.7378,2.7379,2.7381,2.7473,2.7474,2.7475,2.7454,2.7452,2.745,2.7448,2.7547,2.7552,2.7557,0,0,0,0,0,0,0,0,0,0,0,0,0,2.7272,2.7188,2.7378,2.7381,2.7382,2.7472,2.7474,2.7476,2.7455,2.7452,2.7449,2.7447,2.7545,2.7552,2.7558,2.7652,0,0,2.7578,2.7581,0,0,0,0,0,0,0,0,2.7267,2.7279,2.738,2.7381,2.7383,2.7449,2.7442,2.7535,2.7455,2.7427,2.7449,2.7446,2.7518,2.7526,2.755,2.7656,2.7661,2.7579,2.7582,2.7585,2.7587,0,0,0,0,0,0,0,2.7261,2.7275,2.7416,2.7381,2.7383,2.7379,2.7389,2.7459,2.7487,2.743,2.7428,2.744,2.7518,2.7544,2.7552,2.7662,2.7578,2.7584,2.7588,2.7591,2.7851,2.7854,0,0,0,0,0,0,2.7253,2.727,2.7413,2.7419,2.7317,2.7385,2.7395,2.743,2.7486,2.7491,2.7442,2.7438,2.7534,2.7545,2.7556,2.7669,2.7585,2.7591,2.7595,2.7848,2.7852,2.7855,0,0,0,0,0,0,2.7249,2.7266,2.7409,2.7344,2.7362,2.7391,2.743,2.7434,2.7459,2.7495,2.75,2.7463,2.7532,2.7547,2.7628,2.7672,2.7594,2.76,2.7844,2.7849,2.7853,2.7896,0,0,0,0,0,0,2.7243,2.7264,2.7299,2.7345,2.7365,2.7479,2.7433,2.7437,2.747,2.7466,2.7516,2.7522,2.7531,2.7618,2.7634,2.7679,2.7605,2.7841,2.7846,2.7852,2.789,2.7901,2.791,0,0,0,0,0,2.7236,2.7308,2.7301,2.7318,2.7409,2.7481,2.7493,2.7502,2.7474,2.751,2.7533,2.752,2.7665,2.7627,2.7645,2.7692,2.7838,2.7845,2.7851,2.7886,2.7899,2.791,0,0,0,0,0,0,2.7267,2.7314,2.7307,2.7395,2.7434,2.7477,2.7523,2.7515,2.7564,2.7558,2.7569,2.758,2.7663,2.7686,2.7643,2.7786,2.7747,2.7758,2.7768,2.778,2.779,2.7782,2.7611,0,0,0,0,0,2.7285,2.7338,2.7376,2.7451,2.747,2.7493,2.7525,2.7528,2.757,2.7586,2.7615,2.7657,2.7712,2.7748,2.78,2.7894,2.7905,2.7936,2.7946,2.7954,2.7963,2.8015,2.8029,2.7877,2.7877,2.7877,0,0,2.732,2.7353,2.7386,2.7458,2.7488,2.7544,2.7507,2.7568,2.761,2.7596,2.7674,2.7697,2.7744,2.7832,2.7873,2.7854,2.8007,2.7963,2.7969,2.7973,2.8023,2.8037,2.805,2.7882,2.7881,2.788,0,0,2.7414,2.7444,2.7509,2.754,2.7587,2.7602,2.7618,2.7663,2.7677,2.7755,2.7746,2.7797,2.7891,2.7925,2.7955,2.8063,2.8053,2.808,2.8131,2.8182,2.8194,2.8204,2.8242,2.8256,2.8089,2.8089,2.8089,0,2.7453,2.7535,2.7543,2.7605,2.7637,2.7627,2.7693,2.7724,2.7786,2.7809,2.7788,2.7906,2.7937,2.8033,2.8059,2.8084,2.8103,2.8074,2.8191,2.8202,2.8212,2.8248,2.8263,2.8092,2.8092,2.8092,2.8091,0,2.7581,2.7638,2.7686,2.7745,2.7782,2.7846,2.7865,2.7903,2.7904,2.7922,2.8002,2.8039,2.8099,2.8123,2.8125,2.822,2.8207,2.8188,2.8149,2.8229,2.8264,2.8278,2.8096,2.8095,2.8094,2.8094,0,0,2.7694,2.7758,2.7775,2.7802,2.7854,2.7899,2.7963,2.8021,2.8053,2.8097,2.8151,2.8232,2.8215,2.8249,2.8255,2.8299,2.8382,2.8276,2.8277,2.8293,2.8489,2.8502,2.8518,2.8377,2.838,2.8382,2.8485,0,2.7792,2.7903,2.7913,2.8013,2.8067,2.8059,2.8115,2.8154,2.8173,2.8222,2.8244,2.83,2.8274,2.8295,2.8338,2.8363,2.8422,2.8356,2.8428,2.843,2.8415,2.8536,2.8549,2.8645,2.8499,2.8501,2.8503,0,2.7919,2.7966,2.8072,2.8116,2.8139,2.8189,2.8243,2.8291,2.8335,2.8345,2.8384,2.8384,2.8451,2.8411,2.8504,2.8459,2.849,2.8507,2.8511,2.8517,2.847,2.8544,2.8676,2.869,2.8524,2.8523,2.8521,0,2.7991,2.808,2.8155,2.8179,2.8233,2.8268,2.8293,2.8334,2.8368,2.8417,2.8439,2.8495,2.8525,2.8569,2.8585,2.8554,2.8678,2.8639,2.8689,2.8689,2.8714,2.8712,2.8851,2.8736,2.8736,2.8735,2.8735,0,2.8097,2.8162,2.8188,2.8233,2.8306,2.8318,2.839,2.8413,2.8451,2.8502,2.85,2.8548,2.8566,2.8618,2.8632,2.8707,2.8721,2.8732,2.8734,2.8731,2.873,2.875,2.8744,2.8739,2.8738,2.8738,2.8737,0,2.8188,2.8208,2.8289,2.8334,2.8347,2.8399,2.8438,2.8483,2.8501,2.8566,2.8582,2.8612,2.8673,2.8694,2.8768,2.8777,2.8864,2.8862,2.8849,2.8849,2.8898,2.8892,2.9054,2.9075,2.8947,2.8948,2.8949,0,2.8254,2.8303,2.8354,2.8388,2.8413,2.8468,2.8502,2.8517,2.8554,2.8609,2.8647,2.8708,2.8756,2.8855,2.8884,2.8941,2.8939,2.8992,2.8947,2.8943,2.8939,2.8935,2.894,2.8999,2.9001,2.9002,2.9003,0,2.8369,2.8376,2.8426,2.848,2.8522,2.8566,2.8608,2.8636,2.8657,2.8699,2.876,2.8798,2.8874,2.8934,2.8993,2.9019,2.9015,2.9017,2.9031,2.9028,2.9018,2.9023,2.887,2.9012,2.9011,2.9011,2.901,2.901,2.8448,2.8492,2.8534,2.8591,2.8624,2.8664,2.8708,2.8733,2.8784,2.8846,2.8852,2.8919,2.8964,2.9041,2.9071,2.9125,2.911,2.9131,2.9136,2.9141,2.9144,2.9011,2.9136,2.9135,2.9135,2.9135,2.9135,0,2.8562,2.8589,2.8641,2.8699,2.8744,2.8736,2.8783,2.8821,2.8879,2.8921,2.8969,2.904,2.9099,2.9134,2.9193,2.9229,2.9228,2.9244,2.9241,2.9247,2.9154,2.9135,2.9243,2.9243,2.9243,2.9243,2.9243,2.9243,2.8626,2.8699,2.8712,2.8803,2.883,2.8895,2.8922,2.8959,2.8992,2.9072,2.9121,2.9142,2.9182,2.9244,2.9298,2.9307,2.9328,2.9345,2.9352,2.9265,2.9253,2.9243,2.9225,2.935,2.935,2.9441,2.9441,2.9442]},{"header":{"parameterUnit":"m.s-1","parameterCategory":1,"la1":30.2991,"la2":30.254,"lo1":-89.0895,"lo2":-89.0444,"dy":0.0017,"dx":0.0017,"nx":28,"ny":28,"refTime":"2025-11-16T03:00:00:Z","depth":0,"parameterNumber":3,"parameterNumberName":"V-component_of_WINDS"},"data":[0,0,0,0,0,0,0,0,0,0,0,0,0,0,0,0,0,0,0,0,0,0,0,0,0,0,0,0,0,0,0,0,0,0,0,0,0,0,0,0,0,0,0,0,0,0,0,0,0,0,0,0,0,0,0,0,0,0,1.7443,1.7443,0,1.7499,1.7499,1.75,1.7488,1.7486,1.7485,1.7484,1.7542,1.7545,1.7547,0,0,0,0,0,0,0,0,0,0,0,0,0,1.7326,1.7328,1.7443,1.7443,1.7444,1.7498,1.7499,1.75,1.7488,1.7486,1.7485,1.7484,1.7542,1.7545,1.7548,0,0,0,0,0,0,0,0,0,0,0,0,0,1.7379,1.7329,1.7443,1.7444,1.7445,1.7498,1.7499,1.75,1.7488,1.7486,1.7485,1.7483,1.7541,1.7544,1.7548,1.7603,0,0,1.756,1.7561,0,0,0,0,0,0,0,0,1.7376,1.7383,1.7444,1.7444,1.7445,1.7484,1.7479,1.7535,1.7488,1.7472,1.7484,1.7483,1.7524,1.7529,1.7543,1.7606,1.7608,1.756,1.7562,1.7564,1.7565,0,0,0,0,0,0,0,1.7372,1.7381,1.7465,1.7444,1.7446,1.7443,1.7449,1.749,1.7506,1.7473,1.7472,1.7479,1.7525,1.754,1.7545,1.7609,1.756,1.7563,1.7566,1.7567,1.7719,1.772,0,0,0,0,0,0,1.7368,1.7378,1.7463,1.7466,1.7406,1.7446,1.7453,1.7474,1.7506,1.7509,1.748,1.7478,1.7534,1.754,1.7547,1.7613,1.7564,1.7567,1.757,1.7717,1.7719,1.7721,0,0,0,0,0,0,1.7365,1.7375,1.7461,1.7422,1.7433,1.745,1.7473,1.7475,1.7491,1.7511,1.7514,1.7493,1.7533,1.7541,1.7589,1.7615,1.7569,1.7573,1.7715,1.7718,1.772,1.7746,0,0,0,0,0,0,1.7362,1.7375,1.7396,1.7422,1.7435,1.7502,1.7475,1.7478,1.7497,1.7495,1.7524,1.7527,1.7533,1.7583,1.7593,1.7619,1.7575,1.7713,1.7716,1.7719,1.7743,1.775,1.7755,0,0,0,0,0,1.7358,1.7401,1.7397,1.7407,1.7461,1.7504,1.7511,1.7516,1.7499,1.752,1.7534,1.7526,1.761,1.7588,1.7599,1.7627,1.7711,1.7715,1.7719,1.7741,1.7748,1.7755,0,0,0,0,0,0,1.7377,1.7404,1.74,1.7453,1.7476,1.7501,1.7528,1.7524,1.7552,1.7549,1.7555,1.7561,1.761,1.7623,1.7598,1.7682,1.7658,1.7665,1.7671,1.7679,1.7685,1.7681,1.7579,0,0,0,0,0,1.7387,1.7419,1.7442,1.7486,1.7498,1.7511,1.753,1.7532,1.7556,1.7566,1.7582,1.7606,1.7638,1.7659,1.769,1.7745,1.7751,1.7769,1.7775,1.778,1.7785,1.7816,1.7824,1.7734,1.7734,1.7734,0,0,1.7409,1.7428,1.7448,1.7491,1.7509,1.7542,1.7519,1.7555,1.758,1.7571,1.7617,1.763,1.7657,1.7709,1.7733,1.7722,1.7812,1.7785,1.7789,1.7792,1.7821,1.7829,1.7837,1.7737,1.7736,1.7736,0,0,1.7466,1.7483,1.7522,1.7541,1.7568,1.7577,1.7586,1.7612,1.762,1.7666,1.766,1.769,1.7745,1.7764,1.7781,1.7845,1.7839,1.7855,1.7885,1.7915,1.7922,1.7928,1.7951,1.796,1.786,1.786,1.786,0,1.749,1.7539,1.7543,1.758,1.7599,1.7592,1.7631,1.7649,1.7685,1.7699,1.7686,1.7754,1.7772,1.7828,1.7843,1.7857,1.7868,1.7852,1.7921,1.7927,1.7933,1.7955,1.7964,1.7862,1.7861,1.7861,1.7861,0,1.7567,1.7602,1.763,1.7665,1.7687,1.7725,1.7735,1.7757,1.7756,1.7766,1.7813,1.7834,1.7869,1.7882,1.7883,1.7938,1.7931,1.7919,1.7896,1.7943,1.7964,1.7973,1.7864,1.7864,1.7863,1.7863,0,0,1.7638,1.7674,1.7685,1.77,1.773,1.7757,1.7794,1.7828,1.7846,1.7871,1.7903,1.795,1.7939,1.7958,1.7961,1.7987,1.8036,1.7972,1.7973,1.7983,1.8099,1.8108,1.8118,1.8032,1.8034,1.8035,1.8097,0,1.7698,1.7764,1.7769,1.7829,1.7861,1.7854,1.7887,1.7909,1.7919,1.7947,1.7958,1.7991,1.7975,1.7986,1.8011,1.8025,1.8059,1.802,1.8062,1.8064,1.8056,1.8129,1.8138,1.8196,1.8105,1.8106,1.8107,0,1.7777,1.7804,1.7867,1.7892,1.7905,1.7935,1.7965,1.7993,1.8017,1.8023,1.8044,1.8043,1.8082,1.8057,1.811,1.8084,1.8101,1.811,1.8112,1.8117,1.8089,1.8136,1.8214,1.8223,1.812,1.8119,1.8118,0,1.7823,1.7875,1.7919,1.7933,1.7963,1.7984,1.7997,1.802,1.804,1.8067,1.808,1.8111,1.8128,1.8153,1.816,1.8141,1.8213,1.8189,1.8219,1.8219,1.8236,1.8235,1.8319,1.8246,1.8246,1.8246,1.8245,0,1.7889,1.7928,1.794,1.7968,1.8011,1.8016,1.8059,1.8071,1.8091,1.8121,1.8117,1.8145,1.8153,1.8182,1.8188,1.8232,1.824,1.8246,1.8247,1.8246,1.8246,1.8258,1.8255,1.8248,1.8247,1.8247,1.8246,0,1.7948,1.7958,1.8006,1.803,1.8037,1.8068,1.8089,1.8115,1.8124,1.8162,1.8171,1.8186,1.8221,1.823,1.8272,1.8276,1.8327,1.8324,1.8319,1.8319,1.8349,1.8346,1.8445,1.8458,1.8376,1.8377,1.8377,0,1.799,1.802,1.8047,1.8067,1.8081,1.8113,1.8133,1.8138,1.8159,1.8189,1.8212,1.8246,1.8274,1.8329,1.8344,1.8376,1.8374,1.8406,1.8379,1.8377,1.8375,1.8373,1.8376,1.8412,1.8412,1.8413,1.8414,0,1.8064,1.8067,1.8096,1.8127,1.8151,1.8175,1.8199,1.8215,1.8224,1.8248,1.8283,1.8304,1.8346,1.838,1.8412,1.8426,1.8422,1.8422,1.8431,1.8431,1.8427,1.843,1.8334,1.842,1.8419,1.8419,1.8419,1.8418,1.8116,1.8142,1.8165,1.8198,1.8216,1.8238,1.8264,1.8276,1.8306,1.834,1.8342,1.838,1.8404,1.8446,1.8462,1.8492,1.8482,1.8495,1.8498,1.8501,1.8504,1.8421,1.8498,1.8497,1.8497,1.8497,1.8497,0,1.819,1.8204,1.8234,1.8267,1.8292,1.8285,1.8311,1.8333,1.8366,1.8389,1.8416,1.8456,1.8489,1.8506,1.8538,1.8559,1.8558,1.8568,1.8566,1.857,1.8511,1.85,1.8568,1.8568,1.8568,1.8568,1.8568,1.8568,1.8232,1.8275,1.8281,1.8334,1.8348,1.8386,1.8401,1.8421,1.8439,1.8484,1.8511,1.8522,1.8542,1.8576,1.8606,1.861,1.8622,1.8633,1.8636,1.8581,1.8574,1.8567,1.8557,1.8636,1.8636,1.8693,1.8694,1.8694]}]]